Location: Lucerne Valley
(34.4439°N, 116.9669°E)
Time: 10:21:12
(UTC-07:00)

Tiangong 1 - Pass Details

Date: 15 October 2017
Orbit: 292 x 319 km, 42.8° (Epoch: 23 October)

Event Time Altitude Azimuth Distance (km) Brightness Sun altitude
Rises 03:37:57 0° 303° (WNW) 2,040 5.7 -13.1°
Reaches altitude 10° 03:40:02 10° 312° (NW) 1,204 4.3 -13.6°
Maximum altitude 03:42:34 36° 22° (NNE) 509 1.4 -14.1°
Enters shadow 03:43:06 32° 52° (NE) 556 1.4 -14.2°
